Torna al catalogo

STARLINK-36841

AttivoComunicazioniVLEO
NORAD 67960·PAYLOAD·🇺🇸 United States

Lanciato Feb 24, 2026 da Vandenberg Space Force Base

Loading…

Prossimi Passaggi (prossime 24 ore)

TLE

AggiornatoSource: CelesTrak SupGP

Epoca: Sep 15, 2026, 04:23 UTC

1 67960C 26037AE  26258.18312500  .00002917  00000+0  10570-3 0  2581
2 67960  43.0001 200.3774 0001358 280.6619  70.8878 15.27567887    15

Traccia STARLINK-36841 in tempo reale con AllMySat

Download on the App Store